Погода в Первомайском

Россия / Калининградская область     54°35′26″N   22°16′02″E
темп.,
°C
ветер,
м/с
пор.,
м/с
влажн.,
%
обл.,
%
осадки,
мм/ч
давл.,
гПа
погр.,
м
18 апреля, вс
вс1823:00+7всв338977 0.1 102146
02:00+7всв2392100 0.1 102141
05:00+6всв339390 0.0 102143
08:00+10всв368450 0.0 1021257
11:00+15всв456843 0.0 1020878
14:00+17всв575745 0.0 10201546
17:00+17всв566250 0.2 10191295
20:00+12св388238 0.4 1020139
19 апреля, пн
пн1923:00+9в37852 0.0 1021113
02:00+7в35770 0.0 102174
05:00+6в33900 0.0 102137
08:00+10в24771 0.0 1021248
11:00+15всв455316 0.1 10211654
14:00+14в4654100 0.1 1021982
17:00+14всв565381 0.0 10201247
20:00+9в367237 0.1 1021105
20 апреля, вт
вт2023:00+7в35855 0.0 102173
02:00+5вюв22895 0.0 102029
05:00+5всв228967 0.0 102016
08:00+8св357896 0.0 1019272
11:00+12св346178 0.3 10171149
14:00+12всв3461100 1.1 10161116
17:00+12с235741 0.1 10141248
20:00+8сз238375 0.4 101340
21 апреля, ср
ср2123:00+7св228972 0.0 101340
02:00+4всв12945 0.0 101212
05:00+3зсз11955 0.0 101110
08:00+7з238575 0.0 1010302
11:00+11з45616 0.1 10091122
14:00+13зсз665291 0.3 10081745
17:00+12зсз456067 0.1 10081040
20:00+7зюз1177100 0.3 100711
22 апреля, чт
чт2223:00+6ю367939 0.0 100785
02:00+4з6996100 0.4 1008805
05:00+3зюз6118745 0.8 1008794
08:00+5юз69710 0.0 1009914
11:00+8юз795597 0.0 10091827
14:00+6юз9117585 0.5 10091215
17:00+4юз51089100 1.1 1010771
20:00+3зюз6109198 1.5 1010796